This is the latest recevied weather packets stored in our database for station/object CT1ETE. If no packets are shown the sender has not sent any weather packets the latest 10 day(s).
| Time | Temp. | Humidity | Pressure | Rain* | Wind** | Luminosity | Snow |
|---|---|---|---|---|---|---|---|
| 1777826459 | 16.67° C | 71% | 1012.6 hPa | 0 mm | - | - | - |
| 1777823338 | 16.67° C | 76% | 1012.4 hPa | 0 mm | - | - | - |
| 1777822438 | 16.11° C | 79% | 1012.5 hPa | 0.25 mm | - | - | - |
| 1777817034 | 15° C | 84% | 1013 hPa | 2.79 mm | - | - | - |
| 1777814754 | 15° C | 85% | 1012.9 hPa | 0 mm | - | - | - |
| 1777806219 | 14.44° C | 85% | 1013.3 hPa | 0.25 mm | - | - | - |
| 1777805318 | 15.56° C | 83% | 1013.3 hPa | 0 mm | - | - | - |
| 1777803515 | 15.56° C | 81% | 1013.2 hPa | 0 mm | - | - | - |
| 1777800813 | 14.44° C | 86% | 1013.3 hPa | 0 mm | - | - | - |
| 1777794514 | 13.33° C | 78% | 1013.4 hPa | 0 mm | - | - | - |
| 1777790012 | 12.78° C | 76% | 1013.1 hPa | 0 mm | - | - | - |
| 1777778300 | 12.78° C | 72% | 1013.2 hPa | 0.25 mm | - | - | - |
| 1777776495 | 12.78° C | 73% | 1013.3 hPa | 0.25 mm | - | - | - |
| 1777770601 | 13.33° C | 71% | 1014.1 hPa | 0 mm | - | - | - |
| 1777768386 | 13.33° C | 71% | 1014.3 hPa | 0 mm | - | - | - |
| 1777765684 | 13.33° C | 73% | 1014.6 hPa | 2.29 mm | - | - | - |
| 1777765207 | 13.33° C | 74% | 1014.7 hPa | 2.54 mm | - | - | - |
| 1777760701 | 13.89° C | 80% | 1014.9 hPa | 0.25 mm | - | - | - |
| 1777753070 | 13.89° C | 86% | 1014.5 hPa | 0 mm | - | - | - |
| 1777750366 | 14.44° C | 85% | 1014.4 hPa | 0 mm | - | - | - |
| 1777740460 | 15.56° C | 82% | 1014.4 hPa | 0 mm | - | - | - |
| 1777734159 | 16.67° C | 78% | 1014.8 hPa | 0 mm | - | - | - |
| 1777727857 | 16.67° C | 76% | 1015.8 hPa | 0.25 mm | - | - | - |
| 1777723766 | 16.11° C | 81% | 1016.4 hPa | 0 mm | - | - | - |
| 1777720649 | 15° C | 85% | 1016.6 hPa | 0 mm | - | - | - |
* Rain latest hour (hover to see other rain measurements)
** Current wind speed in m/s (hover to see current wind gust speed)